Miscellaneous Local Product
Issued by NWS North Platte, NE

Home | Current Version | Previous Version | Graphics & Text | Print | Product List | Glossary On
Versions: 1 2 3 4 5 6 7 8 9 10 11 12 13 14 15 16 17 18 19 20 21 22 23 24 25 26 27 28 29 30 31 32 33 34 35 36 37 38 39 40 41 42 43 44 45 46 47 48 49 50
000
AXUS43 KLBF 270010
MISLBF


WESTERN AND NORTH CENTRAL NEBRASKA HOURLY WEATHER ROUNDUP
NATIONAL WEATHER SERVICE NORTH PLATTE NE
700 PM CDT THU MAR 26 2015

***STATIONS NOT REPORTING VARIABLES SUCH AS SKY/WEATHER OR
PRESSURE ARE PROVIDED BY THE NEBRASKA DEPARTMENT OF
ROADS...RAWS...AND APRS NETWORKS...AND ARE NOT UNDER
NATIONAL WEATHER SERVICE QUALITY CONTROL***

...OBSERVATIONS IN AND NEAR THE EASTERN PANHANDLE OF NEBRASKA...

CITY           SKY/WX    TMP DP  RH WIND       PRES   REMARKS
PINE RIDGE     CLOUDY    47  27  45 NE9       30.13R
CHADRON        CLOUDY    49  30  48 NE9       30.13R
ALLIANCE       CLOUDY    49  34  56 NW14G24   30.11R
SIDNEY         CLOUDY    52  30  43 N25       30.12R
WHITECLAY        N/A     44  25  47 NE7         N/A
BIG SPRINGS      N/A     56  34  43 N10         N/A
$$

...OBSERVATIONS IN NORTH CENTRAL NEBRASKA...

CITY           SKY/WX    TMP DP  RH WIND       PRES   REMARKS
VALENTINE      CLOUDY    35  27  72 E8        30.19R WCI  29
THEDFORD       MOSUNNY   41  31  68 N14G23    30.13R
AINSWORTH      CLOUDY    34  29  83 NE8       30.17R WCI  27
O`NEILL        CLOUDY    34  32  94 N7        30.17R WCI  28
ORD            CLOUDY    36  27  69 NE12      30.14R WCI  28
BROKEN BOW     MOCLDY    40  31  70 NE21G29   30.11R WCI  30
BROWNLEE         N/A     38  31  75 N14         N/A  WCI  29
SPRINGVIEW       N/A     35  28  76 CALM        N/A
BREWSTER         N/A     38  30  74 NE13        N/A  WCI  30
ROSE             N/A     36  32  87 N13         N/A  WCI  27
NEWPORT          N/A     35  31  83 E7          N/A  WCI  30
SARGENT          N/A     38  31  75 NE7G16      N/A  WCI  33
COMSTOCK         N/A     40  32  75 E12         N/A  WCI  32
EWING            N/A     33  30  90 NE3         N/A
$$

...OBSERVATIONS IN SOUTHWEST NEBRASKA AND FAR NORTHEAST COLORADO...

CITY           SKY/WX    TMP DP  RH WIND       PRES   REMARKS
WRAY           CLOUDY    56  29  36 N16G26    30.11S
HOLYOKE        FAIR      57  32  38 N23       30.11R
IMPERIAL         N/A     54  29  38 N20       30.09R
OGALLALA       CLOUDY    53  32  45 NW13G20   30.09R
NORTH PLATTE   CLOUDY    50  29  44 N21G30    30.08R
MCCOOK         PTSUNNY   59  24  26 N22       30.05R
LEXINGTON      PTSUNNY   55  26  33 N26G33    30.06R
PAXTON           N/A     56  30  37 NW10        N/A
SUTHERLAND       N/A     49  21  32 E18         N/A
BRADY            N/A     53  29  39 N3G13       N/A
GOTHENBURG       N/A     53  29  39 N15         N/A
CALLAWAY         N/A     52  31  43 N21         N/A
$$

...NORTH PLATTE AREA...

CITY           SKY/WX    TMP DP  RH WIND       PRES   REMARKS
AIRPORT        CLOUDY    50  29  44 N21G30    30.08R
DOWNTOWN         N/A     50  30  46 N10G17      N/A
$$

...SOME WEATHER OBSERVATIONS FROM AROUND THE REGION...

CITY           SKY/WX    TMP DP  RH WIND       PRES   REMARKS
DENVER         PTSUNNY   58  23  26 N3        30.13R
LARAMIE        CLOUDY    49  23  36 NW23      30.17S
CHEYENNE       PTSUNNY   53  23  31 N21G29    30.12S
SCOTTSBLUFF    CLOUDY    53  34  48 N18G28    30.11S
RAPID CITY     MOSUNNY   46  28  49 NE12      30.12S
PIERRE         CLOUDY    36  31  82 W6        30.21R WCI  31
WINNER         CLOUDY    36  29  75 N8        30.21R WCI  30
SIOUX FALLS    MOCLDY    38  19  46 N18       30.15R WCI  28
OMAHA          LGT RAIN  36  33  89 N10       30.16R WCI  28
GRAND ISLAND   CLOUDY    37  32  82 NE21G28   30.10R WCI  26
KANSAS CITY    CLOUDY    48  29  47 CALM      30.06F
WICHITA        MOCLDY    56  31  38 SW8       30.04F
HAYS           MOCLDY    61  27  27 NW21G31   30.01R
LIBERAL        MOSUNNY   64  25  22 NW17      30.10R
GOODLAND       CLOUDY    55  28  35 N15G24    30.11R
$$



USA.gov is the U.S. government's official web portal to all federal, state and local government web resources and services.